Bei Facebook empfehlenBei Twitter postenGoogle plusPinterest

Das Wetter im Erzgebirge am 04.01.2017

Wetter und Klima am 04.01.2017 Holzhau im Erzgebirge (630m ü.NN)
Letzte gemessene Temperatur und Uhrzeit der Messung23:45:00 Uhr-3.50 °C
Temperatur (Maximum / Höchstwert) und Uhrzeit der Messung06:45:00 Uhr-0.40 °C
Temperatur (Minimum / Tiefstwert) und Uhrzeit der Messung23:45:00-3.50 °C
Errechneter Absolutwert der Temperaturschwankungen zwischen Tmin und Tmax des Tages3.10 K
Errechnete Tagesmitteltemperatur-1.24271 °C
Gesamt - Niederschlag des Tages (in flüssiger Form)0.00 Liter / m²
Luftdruck (Maximum / Höchstwert) und Zeitpunkt der Messung00:00:00 Uhr1005.20 hPa
Luftdruck (Minimum / Tiefstwert) und Zeitpunkt der Messung15:15:00 Uhr997.30 hPa
Errechneter Absolutwert der Luftdruckschwankungen des Tages7.90 hPa
Höchste gemessene Windgeschwindigkeit und Uhrzeit der Messung06:45:00 Uhr21.96 km/h
Errechnete Windhäufigkeit in Relation zu den Messwerten des Tages53.12500 %
Niedrigste Windkühle (Windchill) und Zeitpunkt der Messung22:30:00 Uhr-8.30 °C
Taupunkt (Maximum / Höchstwert) und Uhrzeit der Messung02:15:00 Uhr-1.60 °C
Taupunkt (Minimum / Tiefstwert) und Uhrzeit der Messung23:45:00-4.70 °C
Anzahl der automatisch eingelesenen Messwerte 96

Detaillierte Wetter- und Klima- Messwerte für den 04.01.2017 in Holzhau im Erzgebirge (630m ü.NN)
ZeitTemperaturLuftdruckRel. LuftfeuchteWindWindrichtungWindchillTaupunktNiederschlag l/m²
23:45:00-3.50 °C1003.80 hPa92.00 %2.16 km/hN-3.50 °C-4.70 °C 
23:30:00-3.30 °C1003.50 hPa92.00 %12.24 km/hNW-7.90 °C-4.50 °C 
23:15:00-3.20 °C1003.50 hPa92.00 %3.60 km/hNW-3.20 °C-4.40 °C 
23:00:00-3.20 °C1003.20 hPa92.00 %5.76 km/hNNW-5.60 °C-4.40 °C 
22:45:00-3.10 °C1003.00 hPa92.00 %6.12 km/hN-5.60 °C-4.30 °C 
22:30:00-2.90 °C1002.80 hPa92.00 %16.56 km/hW-8.30 °C-4.10 °C 
22:15:00-2.80 °C1002.70 hPa92.00 %1.44 km/hNNW-2.80 °C-4.00 °C 
22:00:00-2.70 °C1002.60 hPa92.00 %5.76 km/hNNO-5.00 °C-3.90 °C 
21:45:00-2.70 °C1002.60 hPa92.00 %-3.90 °C 
21:30:00-2.60 °C1002.50 hPa92.00 %9.72 km/hN-6.30 °C-3.90 °C 
21:15:00-2.60 °C1002.40 hPa92.00 %14.76 km/hNNW-7.60 °C-3.90 °C 
21:00:00-2.50 °C1002.00 hPa92.00 %6.12 km/hNNO-5.00 °C-3.80 °C 
20:45:00-2.50 °C1002.10 hPa92.00 %-3.80 °C 
20:30:00-2.60 °C1001.80 hPa92.00 %-3.90 °C 
20:15:00-2.60 °C1001.70 hPa92.00 %-3.90 °C 
20:00:00-2.60 °C1001.60 hPa92.00 %-3.90 °C 
19:45:00-2.60 °C1001.20 hPa92.00 %-3.90 °C 
19:30:00-2.50 °C1001.00 hPa92.00 %-3.80 °C 
19:15:00-2.30 °C1000.90 hPa92.00 %-3.60 °C 
19:00:00-2.10 °C1000.70 hPa92.00 %-3.40 °C 
18:45:00-1.70 °C1000.30 hPa93.00 %-2.80 °C 
18:30:00-1.40 °C999.90 hPa93.00 %-2.50 °C 
18:15:00-1.30 °C999.40 hPa92.00 %-2.60 °C 
18:00:00-1.30 °C999.20 hPa93.00 %-2.40 °C 
17:45:00-1.30 °C999.20 hPa93.00 %-2.40 °C 
17:30:00-1.30 °C999.00 hPa93.00 %-2.40 °C 
17:15:00-1.30 °C998.90 hPa93.00 %-2.40 °C 
17:00:00-1.40 °C998.80 hPa93.00 %1.08 km/hN-1.40 °C-2.50 °C 
16:45:00-1.30 °C998.40 hPa93.00 %7.56 km/hN-4.10 °C-2.40 °C 
16:30:00-1.30 °C998.50 hPa93.00 %1.08 km/hNNO-1.30 °C-2.40 °C 
16:15:00-1.30 °C998.10 hPa93.00 %9.00 km/hNNO-4.60 °C-2.40 °C 
16:00:00-1.30 °C998.00 hPa93.00 %6.48 km/hNNO-3.70 °C-2.40 °C 
15:45:00-1.20 °C997.90 hPa93.00 %8.64 km/hNNW-4.40 °C-2.30 °C 
15:30:00-1.20 °C997.60 hPa92.00 %4.32 km/hN-1.20 °C-2.50 °C 
15:15:00-1.00 °C997.30 hPa90.00 %15.84 km/hNW-5.80 °C-2.60 °C 
15:00:00-0.90 °C997.40 hPa90.00 %9.72 km/hNNW-4.30 °C-2.50 °C 
14:45:00-0.80 °C997.60 hPa90.00 %7.20 km/hN-3.40 °C-2.40 °C 
14:30:00-0.70 °C997.80 hPa91.00 %5.40 km/hNNO-2.60 °C-2.10 °C 
14:15:00-0.80 °C997.70 hPa91.00 %-2.20 °C 
14:00:00-1.00 °C997.80 hPa93.00 %-2.10 °C 
13:45:00-1.10 °C998.00 hPa92.00 %-2.40 °C 
13:30:00-1.20 °C998.10 hPa92.00 %-2.50 °C 
13:15:00-0.90 °C998.20 hPa92.00 %-2.20 °C 
13:00:00-0.50 °C998.00 hPa89.00 %-2.30 °C 
12:45:00-0.70 °C998.00 hPa89.00 %-2.50 °C 
12:30:00-0.50 °C998.20 hPa88.00 %-2.40 °C 
12:15:00-0.60 °C998.60 hPa89.00 %-2.40 °C 
12:00:00-0.60 °C998.50 hPa89.00 %-2.40 °C 
11:45:00-0.50 °C998.70 hPa89.00 %-2.30 °C 
11:30:00-0.50 °C998.70 hPa89.00 %-2.30 °C 
11:15:00-0.50 °C998.60 hPa91.00 %-1.90 °C 
11:00:00-0.60 °C998.60 hPa90.00 %-2.20 °C 
10:45:00-0.60 °C998.70 hPa90.00 %-2.20 °C 
10:30:00-0.50 °C998.70 hPa90.00 %-2.10 °C 
10:15:00-0.60 °C998.80 hPa92.00 %-1.90 °C 
10:00:00-0.80 °C998.80 hPa93.00 %-1.90 °C 
09:45:00-0.90 °C999.00 hPa93.00 %-2.00 °C 
09:30:00-1.10 °C999.10 hPa93.00 %-2.20 °C 
09:15:00-1.20 °C999.10 hPa93.00 %-2.30 °C 
09:00:00-1.30 °C998.90 hPa93.00 %-2.40 °C 
08:45:00-1.30 °C999.10 hPa93.00 %-2.40 °C 
08:30:00-1.20 °C999.30 hPa93.00 %-2.30 °C 
08:15:00-1.10 °C999.40 hPa93.00 %-2.20 °C 
08:00:00-1.10 °C999.50 hPa93.00 %-2.20 °C 
07:45:00-1.00 °C999.10 hPa93.00 %-2.10 °C 
07:30:00-0.80 °C999.10 hPa92.00 %6.12 km/hNNO-3.00 °C-2.10 °C 
07:15:00-0.70 °C999.00 hPa92.00 %-2.00 °C 
07:00:00-0.60 °C998.80 hPa91.00 %6.12 km/hNNW-2.80 °C-2.00 °C 
06:45:00-0.40 °C998.90 hPa91.00 %21.96 km/hNNW-6.00 °C-1.80 °C 
06:30:00-0.40 °C998.90 hPa91.00 %14.76 km/hN-4.90 °C-1.80 °C 
06:15:00-0.60 °C998.90 hPa90.00 %6.84 km/hNNW-3.00 °C-2.20 °C 
06:00:00-0.40 °C999.50 hPa90.00 %4.68 km/hN-0.40 °C-2.00 °C 
05:45:00-0.40 °C999.50 hPa90.00 %16.56 km/hN-5.20 °C-2.00 °C 
05:30:00-0.40 °C999.50 hPa91.00 %10.08 km/hNW-3.80 °C-1.80 °C 
05:15:00-0.60 °C1000.00 hPa92.00 %5.40 km/hNNO-2.50 °C-1.90 °C 
05:00:00-0.60 °C1000.40 hPa92.00 %4.32 km/hNNW-0.60 °C-1.90 °C 
04:45:00-0.50 °C1000.60 hPa91.00 %15.84 km/hSW-5.20 °C-1.90 °C 
04:30:00-0.60 °C1000.70 hPa91.00 %7.20 km/hNNO-3.20 °C-2.00 °C 
04:15:00-0.70 °C1001.10 hPa91.00 %8.28 km/hN-3.70 °C-2.10 °C 
04:00:00-0.70 °C1001.30 hPa92.00 %7.56 km/hNNW-3.40 °C-2.00 °C 
03:45:00-0.70 °C1001.70 hPa92.00 %11.52 km/hNW-4.50 °C-2.00 °C 
03:30:00-0.80 °C1002.10 hPa92.00 %9.36 km/hNNW-4.10 °C-2.10 °C 
03:15:00-0.70 °C1002.50 hPa92.00 %6.12 km/hNNO-2.90 °C-2.00 °C 
03:00:00-0.60 °C1002.50 hPa92.00 %5.04 km/hNNO-2.30 °C-1.90 °C 
02:45:00-0.60 °C1002.80 hPa92.00 %3.24 km/hN-0.60 °C-1.90 °C 
02:30:00-0.60 °C1002.80 hPa93.00 %9.00 km/hNNW-3.80 °C-1.70 °C 
02:15:00-0.50 °C1002.90 hPa93.00 %2.88 km/hNW-0.50 °C-1.60 °C 
02:00:00-0.50 °C1003.20 hPa93.00 %6.48 km/hNNW-2.80 °C-1.60 °C 
01:45:00-0.50 °C1003.40 hPa93.00 %3.24 km/hNNW-0.50 °C-1.60 °C 
01:30:00-0.50 °C1003.50 hPa93.00 %16.20 km/hNNW-5.30 °C-1.60 °C 
01:15:00-0.60 °C1003.70 hPa93.00 %8.64 km/hNNW-3.60 °C-1.70 °C 
01:00:00-0.70 °C1004.00 hPa93.00 %4.68 km/hN-0.70 °C-1.80 °C 
00:45:00-0.90 °C1004.20 hPa93.00 %11.52 km/hN-4.80 °C-2.00 °C 
00:30:00-0.90 °C1004.50 hPa93.00 %-2.00 °C 
00:15:00-1.10 °C1004.90 hPa93.00 %18.72 km/hN-6.40 °C-2.20 °C 
00:00:00-1.10 °C1005.20 hPa93.00 %4.68 km/hNNO-1.10 °C-2.20 °C 

Permanenter Link zu dieser Seite: Wetter im Erzgebirge am 04.01.2017
Performance-Info: Die Erstellung der Seite / Statistik(en) / Tabelle(n) erforderte 5 Datenbankserver-Abfrage(n) und dauerte 123 Millisekunden. (Dieser Messwert ist von der Gesamt-Auslastung des Servers abhängig.)
Erzgebirge - Wetter | Erzgebirge - Wetter (Mobilgeräte) | Komplette Klimadatenbank